AAL4710 KJFK-KBNA

Flight info

Callsign AAL4710
Flight time 1h 53m
Altitude 36000
Route RBV Q430 SAAME/N0418F320 J6 MRB/N0437F360 J6 HVQ Q68 YOCKY GROAT PASLY5
Aircraft B738/M-SDE2E3FGHIRWXY/LB1

Departure

Time 2026-05-04 18:36
Airport John F. Kennedy International Airport (KJFK)

Arrival

Time 2026-05-04 20:29
Airport Nashville International Airport (KBNA)
Time Latitude Longitude Altitude Speed Heading
2026-05-04 17:51 40.64951 -73.79299 15 ft 0 kts 331°
2026-05-04 18:19 40.64950 -73.79298 15 ft 1 kts 331°
2026-05-04 18:20 40.64928 -73.79285 17 ft 4 kts 345°
2026-05-04 18:20 40.64902 -73.79281 17 ft 4 kts 12°
2026-05-04 18:20 40.64883 -73.79295 16 ft 2 kts 59°
2026-05-04 18:20 40.64882 -73.79297 16 ft 1 kts 60°
2026-05-04 18:28 40.64882 -73.79296 15 ft 0 kts 60°
2026-05-04 18:29 40.64890 -73.79279 15 ft 5 kts 60°
2026-05-04 18:29 40.64910 -73.79230 16 ft 6 kts 62°
2026-05-04 18:29 40.64931 -73.79180 15 ft 6 kts 61°
2026-05-04 18:29 40.64953 -73.79131 17 ft 6 kts 59°
2026-05-04 18:30 40.64989 -73.79046 15 ft 6 kts 62°
2026-05-04 18:30 40.65009 -73.78999 16 ft 6 kts 62°
2026-05-04 18:30 40.65029 -73.78953 15 ft 6 kts 56°
2026-05-04 18:31 40.65061 -73.78919 15 ft 7 kts 18°
2026-05-04 18:31 40.65114 -73.78910 15 ft 9 kts
2026-05-04 18:31 40.65184 -73.78903 15 ft 11 kts
2026-05-04 18:31 40.65221 -73.78821 15 ft 12 kts 78°
2026-05-04 18:32 40.65255 -73.78712 16 ft 14 kts 59°
2026-05-04 18:32 40.65305 -73.78599 15 ft 17 kts 62°
2026-05-04 18:32 40.65359 -73.78446 15 ft 19 kts 76°
2026-05-04 18:32 40.65320 -73.78293 16 ft 18 kts 125°
2026-05-04 18:33 40.65253 -73.78151 16 ft 19 kts 120°
2026-05-04 18:33 40.65185 -73.77999 15 ft 20 kts 120°
2026-05-04 18:33 40.65112 -73.77842 15 ft 20 kts 121°
2026-05-04 18:33 40.65040 -73.77680 15 ft 20 kts 119°
2026-05-04 18:34 40.64970 -73.77522 15 ft 20 kts 122°
2026-05-04 18:34 40.64900 -73.77374 15 ft 19 kts 120°
2026-05-04 18:34 40.64833 -73.77224 16 ft 18 kts 124°
2026-05-04 18:34 40.64769 -73.77085 16 ft 18 kts 121°
2026-05-04 18:35 40.64707 -73.76948 15 ft 17 kts 119°
2026-05-04 18:35 40.64647 -73.76814 15 ft 17 kts 120°
2026-05-04 18:35 40.64574 -73.76707 15 ft 14 kts 173°
2026-05-04 18:35 40.64482 -73.76777 16 ft 25 kts 214°
2026-05-04 18:36 40.64125 -73.77056 18 ft 95 kts 210°
2026-05-04 18:36 40.63375 -73.77640 46 ft 150 kts 210°
2026-05-04 18:36 40.62471 -73.78442 675 ft 163 kts 216°
2026-05-04 18:36 40.61512 -73.79250 1559 ft 167 kts 211°
2026-05-04 18:37 40.60445 -73.80140 1898 ft 195 kts 214°
2026-05-04 18:37 40.59238 -73.81160 2166 ft 216 kts 214°
2026-05-04 18:37 40.58080 -73.82510 2941 ft 229 kts 230°
2026-05-04 18:37 40.57052 -73.84217 3525 ft 244 kts 233°
2026-05-04 18:38 40.56394 -73.85405 4120 ft 243 kts 234°
2026-05-04 18:38 40.55389 -73.87250 4910 ft 248 kts 235°
2026-05-04 18:38 40.54388 -73.89084 5767 ft 249 kts 236°
2026-05-04 18:38 40.53363 -73.90949 6529 ft 254 kts 237°
2026-05-04 18:39 40.52320 -73.92836 7288 ft 257 kts 237°
2026-05-04 18:39 40.51257 -73.94748 8057 ft 260 kts 237°
2026-05-04 18:39 40.50177 -73.96681 8798 ft 264 kts 237°
2026-05-04 18:39 40.49083 -73.98635 9550 ft 267 kts 237°
2026-05-04 18:40 40.47971 -74.00615 10254 ft 272 kts 237°
2026-05-04 18:40 40.46821 -74.02662 10780 ft 282 kts 237°
2026-05-04 18:40 40.45656 -74.04730 11439 ft 288 kts 237°
2026-05-04 18:40 40.44456 -74.06855 12174 ft 290 kts 237°
2026-05-04 18:41 40.43249 -74.08989 12981 ft 292 kts 237°
2026-05-04 18:41 40.42028 -74.11147 13773 ft 296 kts 237°
2026-05-04 18:41 40.40793 -74.13328 14486 ft 299 kts 237°
2026-05-04 18:41 40.39542 -74.15536 15185 ft 303 kts 237°
2026-05-04 18:42 40.38277 -74.17766 15891 ft 307 kts 237°
2026-05-04 18:42 40.36988 -74.20040 16590 ft 311 kts 237°
2026-05-04 18:42 40.35684 -74.22338 17284 ft 316 kts 237°
2026-05-04 18:42 40.34371 -74.24671 17981 ft 319 kts 240°
2026-05-04 18:43 40.33376 -74.27261 18611 ft 318 kts 254°
2026-05-04 18:43 40.32846 -74.30066 19268 ft 317 kts 262°
2026-05-04 18:43 40.32477 -74.32920 19924 ft 319 kts 263°
2026-05-04 18:43 40.32125 -74.35766 20542 ft 322 kts 263°
2026-05-04 18:44 40.31767 -74.38679 21156 ft 325 kts 263°
2026-05-04 18:44 40.31521 -74.40666 21592 ft 326 kts 263°
2026-05-04 18:44 40.31034 -74.44568 22440 ft 330 kts 264°
2026-05-04 18:44 40.30658 -74.47543 23023 ft 333 kts 264°
2026-05-04 18:45 40.30275 -74.50561 23596 ft 336 kts 264°
2026-05-04 18:45 40.29887 -74.53597 24086 ft 339 kts 264°
2026-05-04 18:45 40.29494 -74.56653 24589 ft 341 kts 264°
2026-05-04 18:45 40.29103 -74.59694 25073 ft 344 kts 264°
2026-05-04 18:46 40.28701 -74.62800 25545 ft 346 kts 264°
2026-05-04 18:46 40.28297 -74.65920 26015 ft 349 kts 264°
2026-05-04 18:46 40.27888 -74.69067 26482 ft 351 kts 264°
2026-05-04 18:46 40.27476 -74.72229 26937 ft 354 kts 264°
2026-05-04 18:47 40.27060 -74.75415 27377 ft 357 kts 264°
2026-05-04 18:47 40.26639 -74.78628 27811 ft 359 kts 264°
2026-05-04 18:47 40.26213 -74.81874 28249 ft 362 kts 264°
2026-05-04 18:47 40.25785 -74.85131 28676 ft 364 kts 264°
2026-05-04 18:48 40.25352 -74.88420 29095 ft 367 kts 264°
2026-05-04 18:48 40.24916 -74.91723 29492 ft 370 kts 264°
2026-05-04 18:48 40.24476 -74.95055 29884 ft 372 kts 264°
2026-05-04 18:48 40.24032 -74.98403 30223 ft 375 kts 264°
2026-05-04 18:49 40.23589 -75.01737 30534 ft 377 kts 264°
2026-05-04 18:49 40.23136 -75.05130 30862 ft 379 kts 264°
2026-05-04 18:49 40.22682 -75.08533 31167 ft 382 kts 264°
2026-05-04 18:49 40.22221 -75.11975 31466 ft 384 kts 264°
2026-05-04 18:50 40.21758 -75.15425 31761 ft 387 kts 264°
2026-05-04 18:50 40.21290 -75.18909 32036 ft 389 kts 264°
2026-05-04 18:50 40.20818 -75.22404 32320 ft 391 kts 264°
2026-05-04 18:50 40.20344 -75.25914 32607 ft 393 kts 264°
2026-05-04 18:51 40.19867 -75.29443 32851 ft 395 kts 264°
2026-05-04 18:51 40.19384 -75.33002 33113 ft 398 kts 264°
2026-05-04 18:51 40.18898 -75.36571 33381 ft 400 kts 264°
2026-05-04 18:51 40.18414 -75.40119 33639 ft 402 kts 264°
2026-05-04 18:52 40.17914 -75.43775 33885 ft 404 kts 264°
2026-05-04 18:52 40.17416 -75.47406 34099 ft 406 kts 264°
2026-05-04 18:52 40.16921 -75.51008 34307 ft 408 kts 264°
2026-05-04 18:52 40.16417 -75.54665 34503 ft 409 kts 264°
2026-05-04 18:53 40.15910 -75.58335 34714 ft 411 kts 264°
2026-05-04 18:53 40.15399 -75.62024 34896 ft 412 kts 264°
2026-05-04 18:53 40.14885 -75.65723 35079 ft 414 kts 263°
2026-05-04 18:53 40.14375 -75.69388 35268 ft 416 kts 263°
2026-05-04 18:54 40.13856 -75.73113 35447 ft 417 kts 263°
2026-05-04 18:54 40.13334 -75.76848 35612 ft 419 kts 263°
2026-05-04 18:54 40.12808 -75.80604 35796 ft 420 kts 263°
2026-05-04 18:54 40.12282 -75.84348 35945 ft 420 kts 263°
2026-05-04 18:55 40.11753 -75.88101 35929 ft 416 kts 263°
2026-05-04 18:55 40.10196 -75.99086 35945 ft 407 kts 263°
2026-05-04 18:56 40.09162 -76.06359 35937 ft 406 kts 263°
2026-05-04 18:56 40.08132 -76.13570 35931 ft 406 kts 263°
2026-05-04 18:57 40.07093 -76.20807 35911 ft 406 kts 263°
2026-05-04 18:57 40.06049 -76.28052 35921 ft 406 kts 263°
2026-05-04 18:58 40.05002 -76.35310 35917 ft 407 kts 263°
2026-05-04 18:58 40.03942 -76.42596 35922 ft 409 kts 262°
2026-05-04 18:59 40.02396 -76.49777 35921 ft 416 kts 250°
2026-05-04 18:59 39.99499 -76.56334 35912 ft 422 kts 242°
2026-05-04 19:00 39.96401 -76.62851 35929 ft 422 kts 243°
2026-05-04 19:00 39.93350 -76.69403 35918 ft 422 kts 243°
2026-05-04 19:01 39.90303 -76.75942 35921 ft 422 kts 243°
2026-05-04 19:01 39.87244 -76.82466 35923 ft 422 kts 243°
2026-05-04 19:02 39.84185 -76.88985 35918 ft 421 kts 243°
2026-05-04 19:02 39.81139 -76.95473 35922 ft 420 kts 243°
2026-05-04 19:03 39.78099 -77.01936 35950 ft 418 kts 242°
2026-05-04 19:03 39.75082 -77.08342 35951 ft 417 kts 242°
2026-05-04 19:04 39.72049 -77.14772 35952 ft 417 kts 242°
2026-05-04 19:04 39.69010 -77.21195 35947 ft 416 kts 242°
2026-05-04 19:05 39.65976 -77.27583 35947 ft 415 kts 242°
2026-05-04 19:05 39.62942 -77.33956 35946 ft 414 kts 242°
2026-05-04 19:06 39.59913 -77.40320 35944 ft 414 kts 242°
2026-05-04 19:06 39.56903 -77.46634 35944 ft 413 kts 242°
2026-05-04 19:07 39.53878 -77.52969 35945 ft 413 kts 242°
2026-05-04 19:07 39.50849 -77.59300 35940 ft 413 kts 242°
2026-05-04 19:08 39.47816 -77.65627 35943 ft 413 kts 242°
2026-05-04 19:08 39.44780 -77.71949 35909 ft 413 kts 242°
2026-05-04 19:09 39.41764 -77.78224 35902 ft 413 kts 242°
2026-05-04 19:09 39.38721 -77.84539 35890 ft 413 kts 243°
2026-05-04 19:10 39.36029 -77.91060 35901 ft 411 kts 246°
2026-05-04 19:10 39.33446 -77.97643 35901 ft 410 kts 246°
2026-05-04 19:11 39.30855 -78.04213 35893 ft 410 kts 246°
2026-05-04 19:11 39.28247 -78.10771 35908 ft 410 kts 246°
2026-05-04 19:12 39.24322 -78.20589 35914 ft 410 kts 246°
2026-05-04 19:13 39.21723 -78.27068 35912 ft 409 kts 246°
2026-05-04 19:13 39.19104 -78.33587 35909 ft 409 kts 246°
2026-05-04 19:14 39.16486 -78.40088 35903 ft 408 kts 246°
2026-05-04 19:14 39.13870 -78.46570 35910 ft 407 kts 246°
2026-05-04 19:15 39.11252 -78.53048 35904 ft 407 kts 246°
2026-05-04 19:15 39.08632 -78.59515 35912 ft 407 kts 246°
2026-05-04 19:16 39.06026 -78.65935 35915 ft 406 kts 246°
2026-05-04 19:16 39.03404 -78.72383 35904 ft 406 kts 246°
2026-05-04 19:17 39.00786 -78.78816 35909 ft 406 kts 246°
2026-05-04 19:17 38.98155 -78.85253 35921 ft 406 kts 246°
2026-05-04 19:18 38.95529 -78.91658 35929 ft 405 kts 246°
2026-05-04 19:18 38.92898 -78.98064 35923 ft 405 kts 246°
2026-05-04 19:19 38.90284 -79.04427 35906 ft 405 kts 246°
2026-05-04 19:19 38.87656 -79.10821 35939 ft 404 kts 246°
2026-05-04 19:20 38.85020 -79.17214 35933 ft 405 kts 246°
2026-05-04 19:20 38.83155 -79.23947 35950 ft 398 kts 259°
2026-05-04 19:21 38.81940 -79.30865 35951 ft 398 kts 260°
2026-05-04 19:21 38.80727 -79.37764 35949 ft 398 kts 259°
2026-05-04 19:22 38.79488 -79.44690 35956 ft 399 kts 259°
2026-05-04 19:22 38.78235 -79.51624 35959 ft 399 kts 259°
2026-05-04 19:23 38.76976 -79.58552 35953 ft 399 kts 259°
2026-05-04 19:23 38.75925 -79.64315 35960 ft 399 kts 259°
2026-05-04 19:24 38.74658 -79.71244 35955 ft 399 kts 259°
2026-05-04 19:24 38.73186 -79.79268 35963 ft 398 kts 259°
2026-05-04 19:25 38.72118 -79.85064 35955 ft 398 kts 259°
2026-05-04 19:25 38.70852 -79.91918 35958 ft 398 kts 259°
2026-05-04 19:26 38.69575 -79.98813 35964 ft 398 kts 259°
2026-05-04 19:26 38.68296 -80.05699 35974 ft 397 kts 259°
2026-05-04 19:27 38.67010 -80.12604 35973 ft 398 kts 259°
2026-05-04 19:27 38.65718 -80.19497 35982 ft 398 kts 259°
2026-05-04 19:28 38.64411 -80.26407 35975 ft 399 kts 259°
2026-05-04 19:28 38.63111 -80.33272 35969 ft 400 kts 259°
2026-05-04 19:29 38.61797 -80.40209 35967 ft 401 kts 259°
2026-05-04 19:29 38.60477 -80.47160 35964 ft 402 kts 259°
2026-05-04 19:30 38.59154 -80.54108 35963 ft 402 kts 259°
2026-05-04 19:30 38.57824 -80.61061 35958 ft 403 kts 259°
2026-05-04 19:31 38.56491 -80.68011 35948 ft 403 kts 259°
2026-05-04 19:31 38.55151 -80.74975 35942 ft 403 kts 259°
2026-05-04 19:32 38.53808 -80.81929 35934 ft 404 kts 258°
2026-05-04 19:32 38.52458 -80.88890 35942 ft 403 kts 258°
2026-05-04 19:33 38.51114 -80.95805 35939 ft 404 kts 258°
2026-05-04 19:33 38.49758 -81.02753 35935 ft 403 kts 258°
2026-05-04 19:34 38.48396 -81.09711 35929 ft 403 kts 258°
2026-05-04 19:34 38.47033 -81.16648 35937 ft 403 kts 258°
2026-05-04 19:35 38.45557 -81.23558 35930 ft 405 kts 251°
2026-05-04 19:35 38.43109 -81.30061 35925 ft 407 kts 247°
2026-05-04 19:36 38.40620 -81.36541 35927 ft 407 kts 247°
2026-05-04 19:36 38.38167 -81.42987 35936 ft 406 kts 248°
2026-05-04 19:37 38.35712 -81.49466 35936 ft 406 kts 248°
2026-05-04 19:37 38.33250 -81.55961 35944 ft 406 kts 248°
2026-05-04 19:38 38.30792 -81.62438 35945 ft 406 kts 248°
2026-05-04 19:38 38.28328 -81.68912 35939 ft 406 kts 248°
2026-05-04 19:39 38.25864 -81.75374 35934 ft 405 kts 248°
2026-05-04 19:39 38.23399 -81.81824 35929 ft 405 kts 247°
2026-05-04 19:40 38.20949 -81.88220 35921 ft 404 kts 247°
2026-05-04 19:40 38.18484 -81.94643 35918 ft 404 kts 247°
2026-05-04 19:41 38.16022 -82.01045 35918 ft 403 kts 247°
2026-05-04 19:41 38.13561 -82.07432 35915 ft 402 kts 247°
2026-05-04 19:42 38.11095 -82.13815 35922 ft 402 kts 247°
2026-05-04 19:42 38.08630 -82.20185 35922 ft 401 kts 247°
2026-05-04 19:43 38.06162 -82.26550 35925 ft 401 kts 247°
2026-05-04 19:43 38.03713 -82.32853 35921 ft 401 kts 247°
2026-05-04 19:44 38.01243 -82.39196 35931 ft 400 kts 247°
2026-05-04 19:44 37.98771 -82.45532 35940 ft 400 kts 247°
2026-05-04 19:45 37.96295 -82.51864 35939 ft 401 kts 247°
2026-05-04 19:45 37.93818 -82.58187 35943 ft 400 kts 247°
2026-05-04 19:46 37.91339 -82.64503 35949 ft 400 kts 247°
2026-05-04 19:46 37.88856 -82.70814 35953 ft 400 kts 247°
2026-05-04 19:47 37.86389 -82.77074 35953 ft 400 kts 247°
2026-05-04 19:47 37.83906 -82.83360 35946 ft 399 kts 247°
2026-05-04 19:48 37.81422 -82.89636 35946 ft 399 kts 246°
2026-05-04 19:48 37.78933 -82.95911 35939 ft 399 kts 246°
2026-05-04 19:49 37.76437 -83.02194 35936 ft 399 kts 246°
2026-05-04 19:49 37.73961 -83.08413 35952 ft 399 kts 246°
2026-05-04 19:50 37.71465 -83.14667 35958 ft 399 kts 246°
2026-05-04 19:50 37.68963 -83.20927 35963 ft 399 kts 246°
2026-05-04 19:51 37.66468 -83.27156 35970 ft 398 kts 246°
2026-05-04 19:51 37.63976 -83.33365 35974 ft 398 kts 246°
2026-05-04 19:52 37.61450 -83.39649 35969 ft 398 kts 246°
2026-05-04 19:52 37.58942 -83.45873 35979 ft 398 kts 246°
2026-05-04 19:53 37.56441 -83.52070 35957 ft 398 kts 246°
2026-05-04 19:53 37.53925 -83.58288 35956 ft 398 kts 246°
2026-05-04 19:54 37.51404 -83.64506 35939 ft 397 kts 246°
2026-05-04 19:54 37.48888 -83.70701 35941 ft 397 kts 246°
2026-05-04 19:55 37.46372 -83.76884 35933 ft 396 kts 246°
2026-05-04 19:55 37.43854 -83.83058 35934 ft 396 kts 246°
2026-05-04 19:56 37.41336 -83.89224 35931 ft 395 kts 246°
2026-05-04 19:56 37.38836 -83.95332 35932 ft 395 kts 246°
2026-05-04 19:57 37.36320 -84.01466 35939 ft 394 kts 246°
2026-05-04 19:57 37.33810 -84.07576 35945 ft 393 kts 246°
2026-05-04 19:58 37.31302 -84.13665 35942 ft 389 kts 246°
2026-05-04 19:58 37.28838 -84.19634 35941 ft 382 kts 246°
2026-05-04 19:59 37.26391 -84.25557 35769 ft 383 kts 246°
2026-05-04 19:59 37.25171 -84.28508 35503 ft 378 kts 246°
2026-05-04 19:59 37.23962 -84.31424 35119 ft 373 kts 246°
2026-05-04 19:59 37.22771 -84.34296 34753 ft 370 kts 246°
2026-05-04 20:00 37.21589 -84.37145 34361 ft 366 kts 246°
2026-05-04 20:00 37.20433 -84.39929 34002 ft 363 kts 246°
2026-05-04 20:00 37.19267 -84.42734 33591 ft 360 kts 246°
2026-05-04 20:00 37.18114 -84.45506 33193 ft 357 kts 246°
2026-05-04 20:01 37.16967 -84.48259 32840 ft 353 kts 246°
2026-05-04 20:01 37.15836 -84.50974 32469 ft 350 kts 246°
2026-05-04 20:01 37.14716 -84.53660 32119 ft 347 kts 246°
2026-05-04 20:01 37.13599 -84.56335 31757 ft 344 kts 246°
2026-05-04 20:02 37.12497 -84.58974 31398 ft 341 kts 246°
2026-05-04 20:02 37.11398 -84.61603 31052 ft 339 kts 246°
2026-05-04 20:02 37.10310 -84.64203 30703 ft 336 kts 246°
2026-05-04 20:02 37.09229 -84.66783 30370 ft 334 kts 246°
2026-05-04 20:03 37.08155 -84.69347 30036 ft 331 kts 246°
2026-05-04 20:03 37.07087 -84.71894 29646 ft 329 kts 246°
2026-05-04 20:03 37.06033 -84.74404 29313 ft 325 kts 246°
2026-05-04 20:03 37.04980 -84.76911 28940 ft 322 kts 246°
2026-05-04 20:04 37.03954 -84.79349 28610 ft 319 kts 245°
2026-05-04 20:04 37.02923 -84.81801 28272 ft 315 kts 245°
2026-05-04 20:04 37.01902 -84.84226 27945 ft 314 kts 245°
2026-05-04 20:04 37.00887 -84.86636 27621 ft 312 kts 245°
2026-05-04 20:05 36.99873 -84.89044 27281 ft 315 kts 245°
2026-05-04 20:05 36.98833 -84.91513 26949 ft 327 kts 245°
2026-05-04 20:05 36.97762 -84.94057 26585 ft 331 kts 245°
2026-05-04 20:05 36.96688 -84.96598 26212 ft 329 kts 245°
2026-05-04 20:06 36.95622 -84.99116 25857 ft 326 kts 245°
2026-05-04 20:06 36.94563 -85.01613 25504 ft 324 kts 245°
2026-05-04 20:06 36.93507 -85.04102 25154 ft 322 kts 245°
2026-05-04 20:06 36.92463 -85.06563 24807 ft 320 kts 245°
2026-05-04 20:07 36.91424 -85.09012 24469 ft 318 kts 245°
2026-05-04 20:07 36.90400 -85.11422 24130 ft 316 kts 245°
2026-05-04 20:07 36.89374 -85.13837 23792 ft 315 kts 245°
2026-05-04 20:07 36.88333 -85.16285 23436 ft 314 kts 245°
2026-05-04 20:08 36.87327 -85.18651 23043 ft 312 kts 245°
2026-05-04 20:08 36.86309 -85.21041 22676 ft 310 kts 245°
2026-05-04 20:08 36.85299 -85.23411 22348 ft 307 kts 245°
2026-05-04 20:08 36.84300 -85.25759 22002 ft 305 kts 245°
2026-05-04 20:09 36.83310 -85.28084 21678 ft 302 kts 245°
2026-05-04 20:09 36.82325 -85.30388 21344 ft 300 kts 245°
2026-05-04 20:09 36.81348 -85.32676 21023 ft 297 kts 245°
2026-05-04 20:09 36.80380 -85.34942 20705 ft 295 kts 245°
2026-05-04 20:10 36.79417 -85.37194 20384 ft 293 kts 245°
2026-05-04 20:10 36.78782 -85.38678 20176 ft 291 kts 245°
2026-05-04 20:10 36.77829 -85.40903 19871 ft 289 kts 245°
2026-05-04 20:10 36.76884 -85.43108 19560 ft 287 kts 245°
2026-05-04 20:11 36.75941 -85.45303 19236 ft 286 kts 245°
2026-05-04 20:11 36.75005 -85.47483 18948 ft 284 kts 245°
2026-05-04 20:11 36.74075 -85.49648 18644 ft 283 kts 244°
2026-05-04 20:11 36.73145 -85.51806 18332 ft 281 kts 244°
2026-05-04 20:12 36.72232 -85.53923 18012 ft 280 kts 244°
2026-05-04 20:12 36.71315 -85.56056 17676 ft 278 kts 244°
2026-05-04 20:12 36.70400 -85.58182 17352 ft 277 kts 244°
2026-05-04 20:12 36.69494 -85.60284 17062 ft 274 kts 244°
2026-05-04 20:13 36.68595 -85.62371 16762 ft 272 kts 244°
2026-05-04 20:13 36.67704 -85.64436 16457 ft 270 kts 244°
2026-05-04 20:13 36.66816 -85.66493 16161 ft 268 kts 244°
2026-05-04 20:13 36.65935 -85.68534 15862 ft 267 kts 243°
2026-05-04 20:14 36.65057 -85.70565 15571 ft 265 kts 244°
2026-05-04 20:14 36.64185 -85.72582 15265 ft 264 kts 243°
2026-05-04 20:14 36.63317 -85.74587 14989 ft 263 kts 243°
2026-05-04 20:14 36.62464 -85.76556 14698 ft 262 kts 243°
2026-05-04 20:15 36.61703 -85.78311 14448 ft 261 kts 243°
2026-05-04 20:15 36.60823 -85.80341 14148 ft 261 kts 243°
2026-05-04 20:15 36.59962 -85.82323 13865 ft 260 kts 243°
2026-05-04 20:15 36.59099 -85.84309 13557 ft 260 kts 242°
2026-05-04 20:16 36.58241 -85.86284 13240 ft 259 kts 242°
2026-05-04 20:16 36.57386 -85.88251 12940 ft 258 kts 242°
2026-05-04 20:16 36.56532 -85.90209 12648 ft 256 kts 242°
2026-05-04 20:16 36.55689 -85.92147 12373 ft 254 kts 242°
2026-05-04 20:17 36.54852 -85.94072 12089 ft 253 kts 241°
2026-05-04 20:17 36.54020 -85.95985 11807 ft 251 kts 241°
2026-05-04 20:17 36.53187 -85.97896 11524 ft 250 kts 241°
2026-05-04 20:17 36.52386 -85.99736 11261 ft 249 kts 241°
2026-05-04 20:18 36.51548 -86.01657 10981 ft 248 kts 241°
2026-05-04 20:18 36.50728 -86.03536 10712 ft 247 kts 240°
2026-05-04 20:18 36.49910 -86.05407 10424 ft 246 kts 240°
2026-05-04 20:18 36.49107 -86.07242 10158 ft 244 kts 240°
2026-05-04 20:19 36.48298 -86.09091 10042 ft 236 kts 240°
2026-05-04 20:19 36.47520 -86.10869 9792 ft 234 kts 239°
2026-05-04 20:19 36.46746 -86.12635 9521 ft 232 kts 240°
2026-05-04 20:19 36.45977 -86.14391 9260 ft 231 kts 239°
2026-05-04 20:20 36.45212 -86.16135 8995 ft 229 kts 240°
2026-05-04 20:20 36.44454 -86.17866 8733 ft 229 kts 239°
2026-05-04 20:20 36.43681 -86.19619 8482 ft 235 kts 239°
2026-05-04 20:20 36.42892 -86.21413 8208 ft 243 kts 239°
2026-05-04 20:21 36.42077 -86.23270 7926 ft 245 kts 239°
2026-05-04 20:21 36.41260 -86.25129 7640 ft 246 kts 239°
2026-05-04 20:21 36.39621 -86.28854 7056 ft 246 kts 239°
2026-05-04 20:22 36.38802 -86.30720 6788 ft 246 kts 240°
2026-05-04 20:22 36.37978 -86.32593 6476 ft 248 kts 239°
2026-05-04 20:22 36.37149 -86.34474 6210 ft 248 kts 240°
2026-05-04 20:22 36.36321 -86.36355 5883 ft 250 kts 239°
2026-05-04 20:23 36.35481 -86.38253 5592 ft 250 kts 240°
2026-05-04 20:23 36.34646 -86.40144 5302 ft 250 kts 239°
2026-05-04 20:23 36.33810 -86.42033 5004 ft 249 kts 239°
2026-05-04 20:23 36.32979 -86.43915 4740 ft 249 kts 239°
2026-05-04 20:24 36.32146 -86.45793 4443 ft 248 kts 240°
2026-05-04 20:24 36.31322 -86.47660 4175 ft 246 kts 239°
2026-05-04 20:24 36.30511 -86.49497 4092 ft 239 kts 239°
2026-05-04 20:24 36.29718 -86.51289 3930 ft 234 kts 240°
2026-05-04 20:25 36.28959 -86.53003 3862 ft 226 kts 240°
2026-05-04 20:25 36.28221 -86.54699 3728 ft 219 kts 239°
2026-05-04 20:25 36.27506 -86.56336 3620 ft 214 kts 239°
2026-05-04 20:25 36.26783 -86.57944 3445 ft 214 kts 238°
2026-05-04 20:26 36.26047 -86.59564 3164 ft 217 kts 239°
2026-05-04 20:26 36.25189 -86.61098 2904 ft 220 kts 218°
2026-05-04 20:26 36.23810 -86.61798 2709 ft 208 kts 193°
2026-05-04 20:26 36.22448 -86.62248 2439 ft 196 kts 199°
2026-05-04 20:27 36.21178 -86.62779 2168 ft 187 kts 198°
2026-05-04 20:27 36.19985 -86.63226 1956 ft 175 kts 202°
2026-05-04 20:27 36.18853 -86.63707 1725 ft 169 kts 200°
2026-05-04 20:27 36.17769 -86.64157 1547 ft 157 kts 201°
2026-05-04 20:28 36.16812 -86.64517 1523 ft 139 kts 200°
2026-05-04 20:28 36.15897 -86.64881 1248 ft 134 kts 200°
2026-05-04 20:28 36.15044 -86.65262 957 ft 130 kts 202°
2026-05-04 20:28 36.14176 -86.65598 808 ft 131 kts 203°
2026-05-04 20:29 36.13296 -86.65952 593 ft 131 kts 201°
2026-05-04 20:29 36.12534 -86.66265 574 ft 89 kts 198°
2026-05-04 20:29 36.12145 -86.66420 573 ft 37 kts 199°
2026-05-04 20:29 36.11909 -86.66513 577 ft 33 kts 198°
2026-05-04 20:30 36.11847 -86.66604 580 ft 12 kts 310°
2026-05-04 20:30 36.11897 -86.66665 576 ft 7 kts 358°
2026-05-04 20:30 36.11944 -86.66647 579 ft 7 kts 18°
2026-05-04 20:30 36.12006 -86.66618 574 ft 12 kts 20°
2026-05-04 20:31 36.12097 -86.66582 574 ft 15 kts 21°
2026-05-04 20:31 36.12205 -86.66538 576 ft 18 kts 19°
2026-05-04 20:31 36.12283 -86.66557 573 ft 11 kts 296°
2026-05-04 20:31 36.12314 -86.66672 576 ft 18 kts 288°
2026-05-04 20:32 36.12365 -86.66839 577 ft 24 kts 299°
2026-05-04 20:32 36.12474 -86.66957 575 ft 15 kts
2026-05-04 20:32 36.12584 -86.66889 574 ft 19 kts 24°
2026-05-04 20:32 36.12658 -86.66943 577 ft 16 kts 308°
2026-05-04 20:33 36.12722 -86.67037 576 ft 16 kts 309°
2026-05-04 20:33 36.12768 -86.67106 574 ft 0 kts 310°
2026-05-04 20:33 36.12775 -86.67115 574 ft 2 kts 313°
2026-05-04 20:33 36.12792 -86.67120 579 ft 3 kts
2026-05-04 20:34 36.12811 -86.67108 574 ft 4 kts 36°
2026-05-04 20:34 36.12839 -86.67081 574 ft 3 kts 40°